Location: *
(35.8942°N, 23.3025°E)
Time: 17:18:59
(UTC+00:00)

Gurwin Techsat 1B - Pass Details

Date: 08 April 2023
Orbit: 811 x 813 km, 98.9° (Epoch: 03 June)

Event Time Altitude Azimuth Distance (km) Brightness Sun altitude
Rises 01:01:39 0° 17° (NNE) 3,343 12.6 -34.1°
Reaches altitude 10° 01:04:03 10° 21° (NNE) 2,408 11.7 -33.7°
Enters shadow 01:08:07 48° 52° (NE) 1,061 9.4 -33.1°
